Погода в Коронейшене

Канада     52°05′39″N   111°26′56″W
темп.,
°C
ветер,
м/с
пор.,
м/с
влажн.,
%
обл.,
%
осадки,
мм/ч
давл.,
гПа
погр.,
м
8 марта, пн
пн823:00−5зюз237742 0.0 101321
02:00−6зсз34830 0.0 101554
05:00−8сз34840 0.0 101649
08:00−8сз23873 0.0 101833
11:00−5сз249227 0.0 1018174
14:00−2с359364 0.0 1018276
17:00−4всв229673 0.0 101834
20:00−4всв239688 0.0 1018120
9 марта, вт
вт923:00−4вюв119694 0.1 101827
02:00−5зюз1195100 0.1 101723
05:00−5зсз129399 0.1 101822
08:00−9зсз239676 0.0 101829
11:00−6зюз229345 0.0 1017106
14:00−4ююз23920 0.0 1015193
17:00−5ююв35930 0.0 101382
20:00−7ю48840 0.0 1012109
10 марта, ср
ср1023:00−5ю5138219 0.0 1010243
02:00−7ююз4480100 0.0 100866
05:00−9ссз5128891 0.0 1010227
08:00−9ссз9149237 0.0 1014460
11:00−11ссз8149169 0.1 1020541
14:00−10ссз6118995 0.0 1022581
17:00−11ссз598898 0.0 1023555
20:00−16ссз339472 0.0 102639
11 марта, чт
чт1123:00−18зсз229436 0.0 102620
02:00−19з22900 0.0 102620
05:00−19юз23840 0.0 102521
08:00−17ю35830 0.0 102475
11:00−12ююз59820 0.0 1022299
14:00−9ююз48850 0.0 1019361
17:00−9ю34850 0.0 101851
20:00−11ююз34760 0.0 101927
12 марта, пт
пт1223:00−10юз347533 0.0 102030
02:00−8зюз3476100 0.0 102134
05:00−6зсз4575100 0.0 102290
08:00−6зсз337674 0.0 102523
11:00−2з128161 0.0 102647
14:000юз128235 0.0 102655
17:00−2ю237522 0.0 102623
20:00−5ююв34721 0.0 102635